GSAT0217 (GALILEO 21) (43057 NORAD) Tracking and Keplerian Element Data

This shows tracking and keplerian element data for the satellite.

Feedback or suggestion? Click here.




ElementValue
Catalog43057
NameGSAT0217 (GALILEO 21)
Epoch Orbit574
Epoch Day318.91648821
Epoch Year2018
RAAN297.6924
Inclination56.7327
Eccentricity0.0005129
Argument of Perigee267.8006
Mean Anonmoly92.1329
Mean Motion1.70473804
Decay Rate-2.5E-07
L11 43057U 17079C 18318.91648821 -.00000025 00000-0 00000+0 0 9990
L22 43057 56.7327 297.6924 0005129 267.8006 92.1329 1.70473804 5742

Live tracking and technical data element details for GSAT0217 (GALILEO 21) (NORAD 43057). GSAT0217 (GALILEO 21) can be tracked NOW for your location showing map with azimuth and elevation plus other details from your city location.

Track the satellite on the map from your city or location and see movement details for azimuth, elevation, latitude, longitude, range, height, and movement on the map or in text.







IsCatalogInMostPopularTable: catalog: 43057, numindb: 153
Update: records affected: 1



GetName: 43057 GSAT0217 (GALILEO 21)

Hit Count: updated at: Fri, 16 Nov 2018 09:59:22 GMT